TimeEDT,TemperatureF,Dew PointF,Humidity,Sea Level PressureIn,VisibilityMPH,Wind Direction,Wind SpeedMPH,Gust SpeedMPH,PrecipitationIn,Events,Conditions,WindDirDegrees,DateUTC
12:25 AM,71.6,71.6,100,30.28,0.5,SSW,3.5,-,N/A,Fog,Fog,210,2013-07-14 04:25:00
12:37 AM,73.4,71.6,94,30.28,0.2,SSW,3.5,-,N/A,Fog,Fog,200,2013-07-14 04:37:00
12:46 AM,73.4,71.6,94,30.29,0.5,SW,3.5,-,N/A,Fog,Fog,230,2013-07-14 04:46:00
12:56 AM,73.0,72.0,96,30.29,0.8,SW,4.6,-,N/A,,Mist,230,2013-07-14 04:56:00
1:03 AM,73.4,71.6,94,30.28,1.5,Calm,Calm,-,N/A,,Overcast,0,2013-07-14 05:03:00
1:25 AM,73.4,71.6,94,30.29,2.5,WSW,4.6,-,N/A,,Overcast,240,2013-07-14 05:25:00
1:38 AM,73.4,71.6,94,30.29,0.8,WSW,3.5,-,N/A,,Mist,240,2013-07-14 05:38:00
1:56 AM,73.0,72.0,96,30.30,1.2,West,3.5,-,N/A,,Overcast,270,2013-07-14 05:56:00
2:26 AM,73.4,71.6,94,30.28,2.5,Calm,Calm,-,N/A,,Overcast,0,2013-07-14 06:26:00
2:33 AM,73.4,71.6,94,30.28,5.0,Calm,Calm,-,N/A,,Overcast,0,2013-07-14 06:33:00
2:54 AM,73.4,71.6,94,30.28,1.8,SW,3.5,-,N/A,,Overcast,230,2013-07-14 06:54:00
2:56 AM,72.0,72.0,100,30.29,1.8,SW,3.5,-,N/A,,Overcast,220,2013-07-14 06:56:00
3:54 AM,71.6,71.6,100,30.27,0.8,WSW,5.8,-,N/A,,Mist,250,2013-07-14 07:54:00
3:56 AM,72.0,71.1,97,30.28,0.5,WSW,4.6,-,N/A,Fog,Fog,250,2013-07-14 07:56:00
4:13 AM,71.6,71.6,100,30.28,2.0,West,3.5,-,N/A,,Overcast,260,2013-07-14 08:13:00
4:34 AM,71.6,71.6,100,30.28,0.8,SW,4.6,-,N/A,,Overcast,220,2013-07-14 08:34:00
4:56 AM,72.0,71.1,97,30.28,0.2,WSW,5.8,-,N/A,Fog,Fog,250,2013-07-14 08:56:00
5:04 AM,71.6,71.6,100,30.28,0.5,WSW,5.8,-,N/A,Fog,Fog,240,2013-07-14 09:04:00
5:26 AM,73.4,71.6,94,30.28,1.8,Calm,Calm,-,N/A,,Overcast,0,2013-07-14 09:26:00
5:33 AM,73.4,71.6,94,30.29,2.0,Calm,Calm,-,N/A,,Overcast,0,2013-07-14 09:33:00
5:41 AM,73.4,71.6,94,30.29,1.2,Calm,Calm,-,N/A,,Overcast,0,2013-07-14 09:41:00
5:56 AM,73.0,72.0,96,30.29,0.2,Calm,Calm,-,N/A,Fog,Fog,0,2013-07-14 09:56:00
6:32 AM,73.4,71.6,94,30.29,1.0,WNW,4.6,-,N/A,,Mist,290,2013-07-14 10:32:00
6:56 AM,73.0,72.0,96,30.29,1.8,WSW,5.8,-,N/A,,Overcast,250,2013-07-14 10:56:00
7:02 AM,73.4,71.6,94,30.29,3.0,Calm,Calm,-,N/A,,Overcast,0,2013-07-14 11:02:00
7:56 AM,73.9,73.0,97,30.30,4.0,WNW,3.5,-,N/A,,Overcast,300,2013-07-14 11:56:00
8:31 AM,75.2,73.4,94,30.29,10.0,West,6.9,-,N/A,,Overcast,280,2013-07-14 12:31:00
8:43 AM,77.0,73.4,89,30.29,10.0,WNW,5.8,-,N/A,,Mostly Cloudy,290,2013-07-14 12:43:00
8:56 AM,77.0,73.0,88,30.29,10.0,WNW,8.1,-,N/A,,Overcast,300,2013-07-14 12:56:00
9:21 AM,78.8,73.4,83,30.28,10.0,WNW,8.1,-,N/A,,Mostly Cloudy,300,2013-07-14 13:21:00
9:56 AM,81.0,73.9,79,30.28,10.0,WNW,6.9,-,N/A,,Scattered Clouds,300,2013-07-14 13:56:00
10:11 AM,80.6,73.4,79,30.27,10.0,Variable,4.6,-,N/A,,Mostly Cloudy,0,2013-07-14 14:11:00
10:18 AM,82.4,73.4,74,30.27,10.0,WNW,5.8,-,N/A,,Scattered Clouds,300,2013-07-14 14:18:00
10:56 AM,79.0,73.0,82,30.27,10.0,SSE,6.9,-,N/A,,Mostly Cloudy,150,2013-07-14 14:56:00
11:56 AM,75.9,72.0,87,30.28,10.0,SE,6.9,-,N/A,,Overcast,140,2013-07-14 15:56:00
12:56 PM,79.0,73.9,84,30.27,10.0,SSE,8.1,-,N/A,,Scattered Clouds,160,2013-07-14 16:56:00
1:56 PM,80.1,73.0,79,30.26,10.0,South,6.9,-,N/A,,Clear,180,2013-07-14 17:56:00
2:56 PM,79.0,73.0,82,30.25,10.0,SSW,8.1,-,N/A,,Mostly Cloudy,200,2013-07-14 18:56:00
3:56 PM,82.0,73.0,74,30.23,10.0,SSW,9.2,-,N/A,,Partly Cloudy,210,2013-07-14 19:56:00
4:56 PM,81.0,73.0,77,30.22,10.0,SW,10.4,-,N/A,,Clear,230,2013-07-14 20:56:00
5:56 PM,79.0,73.0,82,30.21,10.0,SSW,6.9,-,N/A,,Mostly Cloudy,200,2013-07-14 21:56:00
6:56 PM,78.1,73.0,84,30.20,10.0,SW,10.4,-,0.00,Rain,Light Rain,230,2013-07-14 22:56:00
7:56 PM,75.9,73.9,94,30.21,3.0,SSW,6.9,-,0.27,Rain,Light Rain,200,2013-07-14 23:56:00
8:56 PM,75.9,73.9,94,30.21,6.0,SSW,4.6,-,0.02,,Overcast,210,2013-07-15 00:56:00
9:56 PM,75.9,73.9,94,30.21,7.0,Calm,Calm,-,N/A,,Overcast,0,2013-07-15 01:56:00
10:56 PM,75.9,73.9,94,30.20,7.0,SW,4.6,-,N/A,,Mostly Cloudy,230,2013-07-15 02:56:00
11:56 PM,75.0,73.0,94,30.20,10.0,Calm,Calm,-,N/A,,Clear,0,2013-07-15 03:56:00